Location: Street
(51.1247°N, 2.7429°W)
Time: 10:00:47
(UTC+00:00)

Tiros 1 - Pass Details

Date: 26 November 2020
Orbit: 630 x 663 km, 48.4° (Epoch: 21 January)

Event Time Altitude Azimuth Distance (km) Brightness Sun altitude
Rises 20:38:42 0° 276° (W) 2,983 11.4 -41.1°
Enters shadow 20:40:58 - 271° (W) 2,122 10.4 -41.4°
Reaches altitude 10° 20:41:07 10° 271° (W) 2,066 - -41.5°
Maximum altitude 20:45:41 48° 198° (SSW) 853 - -42.1°
Drops below altitude 10° 20:50:12 10° 124° (SE) 2,040 - -42.8°
Sets 20:52:34 0° 119° (ESE) 2,942 - -43.1°
